Regional Weather Roundup
Issued by NWS

Home | Current Version | Previous Version | Text Only | Print | Product List | Glossary On
Versions: 1 2 3 4 5 6 7 8 9 10 11 12 13 14 15 16 17 18 19 20 21 22 23 24 25 26 27 28 29 30 31 32 33 34 35 36 37 38 39 40 41 42 43 44 45 46 47 48 49 50
000
ASUS43 KLSX 260410
RWRMO

WEATHER SUMMARY FOR MISSOURI
NATIONAL WEATHER SERVICE SPRINGFIELD MO
1000 PM CST SAT FEB 25 2017

NOTE: "FAIR" INDICATES FEW OR NO CLOUDS BELOW 12,000 FEET WITH NO
       SIGNIFICANT WEATHER AND/OR OBSTRUCTIONS TO VISIBILITY.
       CURRENT SKY AND/OR WEATHER CONDITIONS ARE NOT AVAILABLE FOR
       CHILLICOTHE AND FARMINGTON.

MOZ001>031-035>038-043-044-053-054-260500-
...NORTHERN AND WESTERN MISSOURI...

CITY           SKY/WX    TMP DP  RH WIND       PRES   REMARKS
KANSAS CTY INT CLEAR     26  13  57 S10       30.02F WCI  16
KANSAS C DTWN  MOCLDY    38  10  31 S14       30.03F WCI  30
LEE`S SUMMIT   MOCLDY    35  12  38 S10       30.05S WCI  27
ST JOSEPH      MOCLDY    32  17  54 S7        30.01S WCI  26
CHILLICOTHE      N/A     29  13  51 S5        30.05F WCI  24
KIRKSVILLE     CLOUDY    25  15  66 S7        30.06F WCI  17

$$
MOZ066>068-077>081-088>096-101>105-260500-
...SOUTHWEST MISSOURI...

CITY           SKY/WX    TMP DP  RH WIND       PRES   REMARKS
SPRINGFIELD    CLEAR     27  16  63 SE5       30.09R WCI  22
JOPLIN         CLEAR     30  18  60 SE5       30.10S WCI  25
BRANSON        CLOUDY    32  16  51 CALM      30.10S

$$
MOZ032>034-039>042-045>050-055>058-069>072-260500-
...CENTRAL MISSOURI...

CITY           SKY/WX    TMP DP  RH WIND       PRES   REMARKS
COLUMBIA       CLEAR     29  11  47 S6        30.10R WCI  23
JEFFERSON CITY CLEAR     25  16  68 SE5       30.12R WCI  19
ROLLA          CLEAR     26  12  55 SE7       30.09S WCI  18
SEDALIA        PTCLDY    30  12  47 S8        30.09S WCI  22
WHITEMAN AFB   MOCLDY    29  13  50 S7        30.07S WCI  22
WARRENSBURG    MOCLDY    32  16  51 S6        30.08S WCI  26
OSAGE BEACH    CLEAR     27  15  61 SE3       30.12R

$$
MOZ051-052-059>065-260500-
...EAST CENTRAL MISSOURI...

CITY           SKY/WX    TMP DP  RH WIND       PRES   REMARKS
ST LOUIS INTL  CLEAR     33  15  47 CALM      30.13S
SPIRIT OF STL  CLEAR     25  17  72 CALM      30.14R
ST CHARLES     CLEAR     23  13  65 CALM      30.13S

$$
MOZ072>076-082>087-097>100-106>115-260500-
...SOUTH CENTRAL AND SOUTHEAST MISSOURI...

CITY           SKY/WX    TMP DP  RH WIND       PRES   REMARKS
CAPE GIRARDEAU CLEAR     31  16  54 CALM      30.16R
FARMINGTON     CLEAR     27  16  63 CALM      30.14S
POPLAR BLUFF   CLEAR     32  18  56 CALM      30.16R
WEST PLAINS    CLEAR     28  18  66 CALM      30.12R

$$



USA.gov is the U.S. government's official web portal to all federal, state and local government web resources and services.